| time (UTC) | temp F | wind direction | speed knots | gust knots | rain 1hr in | rain 24hr in | rain mn in | humidity % | barometer mb |
| 20260906051604 | 52 | 236 | 1.7 | 6.1 | 0.00 | 0.00 | 0.00 | 84 | 1024.1 |
| 20260906051102 | 52 | 256 | 1.7 | 5.2 | 0.00 | 0.00 | 0.00 | 84 | 1024.0 |
| 20260906045604 | 51 | 319 | 0.9 | 2.6 | 0.00 | 0.00 | 0.00 | 84 | 1023.8 |
| 20260906045102 | 51 | 237 | 1.7 | 6.1 | 0.00 | 0.00 | 0.00 | 84 | 1023.8 |
| 20260906044605 | 51 | 235 | 1.7 | 6.1 | 0.00 | 0.00 | 0.00 | 84 | 1023.7 |
| 20260906044102 | 51 | 244 | 1.7 | 3.5 | 0.00 | 0.00 | 0.00 | 84 | 1023.7 |
| 20260906043604 | 51 | 251 | 1.7 | 6.1 | 0.00 | 0.00 | 0.00 | 84 | 1023.7 |
| 20260906043102 | 52 | 259 | 1.7 | 6.1 | 0.00 | 0.00 | 0.00 | 84 | 1023.7 |
| 20260906042101 | 52 | 246 | 1.7 | 7.8 | 0.00 | 0.00 | 0.00 | 83 | 1023.6 |
| 20260906041604 | 52 | 262 | 0.9 | 7.8 | 0.00 | 0.00 | 0.00 | 83 | 1023.6 |
| 20260906041103 | 52 | 287 | 1.7 | 6.1 | 0.00 | 0.00 | 0.00 | 83 | 1023.5 |
| 20260906040617 | 52 | 248 | 1.7 | 6.1 | 0.00 | 0.00 | 0.00 | 83 | 1023.4 |
| 20260906034604 | 53 | 242 | 1.7 | 7.8 | 0.00 | 0.00 | 0.00 | 83 | 1023.4 |
| 20260906034102 | 53 | 304 | 0.9 | 4.3 | 0.00 | 0.00 | 0.00 | 83 | 1023.3 |
| 20260906033101 | 53 | 270 | 0.9 | 3.5 | 0.00 | 0.00 | 0.00 | 83 | 1023.3 |
| 20260906032605 | 53 | 269 | 0.9 | 3.5 | 0.00 | 0.00 | 0.00 | 83 | 1023.2 |
| 20260906031605 | 53 | 297 | 1.7 | 4.3 | 0.00 | 0.00 | 0.00 | 82 | 1023.2 |
| 20260906030604 | 53 | 250 | 2.6 | 6.1 | 0.00 | 0.00 | 0.00 | 82 | 1023.1 |
| 20260906025605 | 53 | 314 | 0.9 | 7.0 | 0.00 | 0.00 | 0.00 | 83 | 1023.1 |
| 20260906024604 | 53 | 276 | 0.9 | 5.2 | 0.00 | 0.00 | 0.00 | 83 | 1023.0 |
| 20260906023604 | 53 | 257 | 0.0 | 2.6 | 0.00 | 0.00 | 0.00 | 83 | 1023.0 |
| 20260906023102 | 53 | 262 | 0.0 | 2.6 | 0.00 | 0.00 | 0.00 | 83 | 1022.9 |
| 20260906022605 | 53 | 261 | 0.9 | 3.5 | 0.00 | 0.00 | 0.00 | 82 | 1076.7 |
| 20260906022102 | 53 | 233 | 0.9 | 3.5 | 0.00 | 0.00 | 0.00 | 82 | 1022.9 |
| 20260906021604 | 53 | 234 | 0.9 | 5.2 | 0.00 | 0.00 | 0.00 | 82 | 1022.9 |
| 20260906021102 | 53 | 267 | 0.9 | 5.2 | 0.00 | 0.00 | 0.00 | 82 | 1022.8 |
| 20260906020605 | 54 | 279 | 0.9 | 3.5 | 0.00 | 0.00 | 0.00 | 82 | 1022.8 |
| 20260906014603 | 54 | 259 | 0.9 | 4.3 | 0.00 | 0.00 | 0.00 | 82 | 1022.6 |
| 20260906014102 | 54 | 254 | 0.9 | 4.3 | 0.00 | 0.00 | 0.00 | 82 | 1022.5 |
| 20260906013603 | 54 | 277 | 0.9 | 4.3 | 0.00 | 0.00 | 0.00 | 81 | 1022.5 |
| 20260906013102 | 55 | 320 | 0.9 | 6.1 | 0.00 | 0.00 | 0.00 | 81 | 1022.4 |
| 20260906012102 | 55 | 271 | 0.9 | 5.2 | 0.00 | 0.00 | 0.00 | 81 | 1022.4 |
| 20260906011603 | 55 | 282 | 0.9 | 5.2 | 0.00 | 0.00 | 0.00 | 81 | 1022.4 |
| 20260906011102 | 55 | 306 | 0.9 | 3.5 | 0.00 | 0.01 | 0.00 | 81 | 1022.4 |
| 20260906010603 | 55 | 283 | 0.9 | 3.5 | 0.00 | 0.01 | 0.00 | 81 | 1022.4 |
| 20260906005102 | 55 | 287 | 1.7 | 6.1 | 0.00 | 0.02 | 0.00 | 81 | 1022.4 |
| 20260906004602 | 55 | 257 | 1.7 | 7.0 | 0.00 | 0.03 | 0.00 | 81 | 1022.4 |
| 20260906004101 | 55 | 290 | 1.7 | 7.0 | 0.00 | 0.03 | 0.00 | 81 | 1022.2 |
| 20260906003604 | 55 | 272 | 1.7 | 7.8 | 0.00 | 0.03 | 0.00 | 81 | 1022.2 |
| 20260906003102 | 55 | 297 | 2.6 | 7.8 | 0.00 | 0.04 | 0.00 | 82 | 1022.4 |
| 20260906002601 | 55 | 288 | 1.7 | 6.1 | 0.00 | 0.04 | 0.00 | 82 | 1022.4 |
| 20260906001605 | 55 | 259 | 0.9 | 6.1 | 0.00 | 0.04 | 0.00 | 82 | 1022.4 |
| 20260905235102 | 54 | 267 | 0.0 | 2.6 | 0.00 | 0.05 | 0.00 | 81 | 1021.9 |
| 20260905234602 | 54 | 277 | 0.0 | 2.6 | 0.00 | 0.05 | 0.00 | 81 | 1022.0 |
| 20260905234102 | 54 | 295 | 0.0 | 1.7 | 0.00 | 0.05 | 0.00 | 81 | 1021.8 |
| 20260905233602 | 54 | 296 | 0.9 | 2.6 | 0.00 | 0.05 | 0.00 | 81 | 1021.8 |
| 20260905233102 | 54 | 290 | 0.9 | 2.6 | 0.00 | 0.05 | 0.00 | 81 | 1021.8 |
| 20260905232602 | 54 | 291 | 0.9 | 2.6 | 0.00 | 0.05 | 0.00 | 81 | 1021.9 |
| 20260905232102 | 54 | 280 | 0.9 | 3.5 | 0.00 | 0.05 | 0.00 | 81 | 1021.7 |
| 20260905231115 | 54 | 260 | 0.9 | 4.3 | 0.00 | 0.05 | 0.00 | 81 | 1021.7 |
| 20260905224602 | 55 | 271 | 0.9 | 4.3 | 0.00 | 0.05 | 0.00 | 79 | 1021.6 |
| 20260905224102 | 55 | 239 | 0.0 | 5.2 | 0.00 | 0.05 | 0.00 | 79 | 1021.5 |
| 20260905223602 | 56 | 240 | 0.9 | 5.2 | 0.00 | 0.06 | 0.00 | 78 | 1021.6 |
| 20260905223101 | 56 | 238 | 1.7 | 7.0 | 0.00 | 0.06 | 0.00 | 78 | 1021.4 |
| 20260905222601 | 56 | 276 | 1.7 | 7.0 | 0.00 | 0.06 | 0.00 | 78 | 1021.5 |
| 20260905221601 | 56 | 265 | 1.7 | 7.0 | 0.00 | 0.07 | 0.00 | 78 | 1021.4 |
| 20260905220602 | 56 | 273 | 0.9 | 5.2 | 0.00 | 0.07 | 0.00 | 77 | 1021.2 |
| 20260905215101 | 57 | 265 | 2.6 | 7.8 | 0.00 | 0.09 | 0.08 | 76 | 1021.2 |
| 20260905214602 | 57 | 246 | 2.6 | 7.8 | 0.00 | 0.10 | 0.08 | 76 | 1021.2 |
| 20260905214101 | 57 | 249 | 1.7 | 6.1 | 0.00 | 0.11 | 0.08 | 75 | 1021.3 |
| 20260905213601 | 57 | 252 | 1.7 | 7.0 | 0.00 | 0.13 | 0.08 | 75 | 1021.2 |
| 20260905213102 | 58 | 302 | 1.7 | 7.0 | 0.00 | 0.13 | 0.08 | 75 | 1021.2 |
| 20260905212106 | 58 | 282 | 0.9 | 5.2 | 0.00 | 0.14 | 0.08 | 74 | 1021.1 |
| 20260905211602 | 58 | 269 | 2.6 | 10.4 | 0.00 | 0.17 | 0.08 | 74 | 1021.0 |
| 20260905211104 | 58 | 200 | 4.3 | 10.4 | 0.00 | 0.20 | 0.08 | 74 | 1021.0 |
| 20260905210602 | 58 | 277 | 3.5 | 8.7 | 0.00 | 0.20 | 0.08 | 73 | 1021.0 |
| 20260905205603 | 58 | 284 | 3.5 | 11.3 | 0.00 | 0.25 | 0.08 | 73 | 1021.1 |
| 20260905204602 | 58 | 294 | 3.5 | 12.2 | 0.00 | 0.28 | 0.08 | 73 | 1020.9 |
| 20260905204104 | 58 | 297 | 4.3 | 12.2 | 0.00 | 0.29 | 0.08 | 73 | 1020.8 |
| 20260905203602 | 58 | 260 | 3.5 | 10.4 | 0.00 | 0.30 | 0.08 | 73 | 1020.9 |
| 20260905203103 | 58 | 284 | 2.6 | 8.7 | 0.00 | 0.30 | 0.08 | 73 | 1020.8 |
| 20260905202103 | 58 | 281 | 2.6 | 10.4 | 0.00 | 0.31 | 0.08 | 74 | 1020.6 |
| 20260905201602 | 58 | 276 | 3.5 | 8.7 | 0.00 | 0.31 | 0.08 | 74 | 1020.6 |
| 20260905201103 | 58 | 263 | 3.5 | 9.6 | 0.00 | 0.31 | 0.08 | 74 | 1020.6 |
| 20260905200601 | 58 | 231 | 0.9 | 9.6 | 0.00 | 0.31 | 0.08 | 74 | 1020.4 |
| 20260905195602 | 59 | 0 | 0.9 | 3.5 | 0.00 | 0.31 | 0.08 | 72 | 1020.3 |
| 20260905195106 | 59 | 246 | 1.7 | 6.1 | 0.00 | 0.31 | 0.08 | 72 | 1020.3 |
| 20260905194602 | 59 | 253 | 1.7 | 6.1 | 0.00 | 0.31 | 0.08 | 71 | 1020.2 |
| 20260905194103 | 60 | 263 | 1.7 | 6.1 | 0.00 | 0.31 | 0.08 | 70 | 1020.1 |
| 20260905193104 | 60 | 264 | 3.5 | 12.2 | 0.00 | 0.31 | 0.08 | 69 | 1020.0 |
| 20260905192601 | 60 | 282 | 4.3 | 13.9 | 0.00 | 0.31 | 0.08 | 69 | 1020.0 |
| 20260905192103 | 60 | 269 | 3.5 | 13.9 | 0.00 | 0.31 | 0.08 | 69 | 1019.8 |
| 20260905191103 | 61 | 232 | 4.3 | 10.4 | 0.00 | 0.31 | 0.08 | 68 | 1019.7 |
| 20260905190103 | 61 | 269 | 3.5 | 10.4 | 0.00 | 0.31 | 0.08 | 67 | 1019.6 |
| 20260905185602 | 62 | 302 | 3.5 | 11.3 | 0.00 | 0.31 | 0.08 | 67 | 1019.6 |
| 20260905184602 | 62 | 321 | 4.3 | 11.3 | 0.00 | 0.31 | 0.08 | 66 | 1019.5 |
| 20260905184103 | 62 | 264 | 3.5 | 11.3 | 0.00 | 0.31 | 0.08 | 66 | 1019.4 |
| 20260905183602 | 62 | 292 | 4.3 | 12.2 | 0.00 | 0.31 | 0.08 | 66 | 1019.4 |
| 20260905183103 | 62 | 304 | 3.5 | 12.2 | 0.00 | 0.31 | 0.08 | 66 | 1019.5 |
| 20260905182103 | 62 | 167 | 3.5 | 11.3 | 0.00 | 0.31 | 0.08 | 65 | 1019.3 |
| 20260905181103 | 62 | 276 | 4.3 | 13.0 | 0.00 | 0.31 | 0.08 | 64 | 1019.2 |
| 20260905180602 | 62 | 296 | 5.2 | 13.0 | 0.00 | 0.31 | 0.08 | 64 | 1019.1 |
| 20260905180104 | 62 | 261 | 4.3 | 11.3 | 0.00 | 0.31 | 0.08 | 64 | 1019.0 |
| 20260905175602 | 62 | 238 | 4.3 | 10.4 | 0.00 | 0.31 | 0.08 | 64 | 1019.0 |
| 20260905175103 | 62 | 300 | 4.3 | 13.0 | 0.00 | 0.31 | 0.08 | 64 | 1019.0 |
| 20260905174602 | 62 | 281 | 4.3 | 13.0 | 0.00 | 0.31 | 0.08 | 64 | 1019.0 |
| 20260905174105 | 62 | 303 | 4.3 | 10.4 | 0.00 | 0.31 | 0.08 | 64 | 1018.9 |
| 20260905173602 | 62 | 240 | 3.5 | 9.6 | 0.00 | 0.31 | 0.08 | 64 | 1018.7 |
| 20260905173104 | 62 | 275 | 2.6 | 9.6 | 0.00 | 0.31 | 0.08 | 64 | 1018.7 |
| 20260905172104 | 63 | 272 | 4.3 | 13.9 | 0.00 | 0.31 | 0.08 | 62 | 1018.6 |
| 20260905171602 | 63 | 105 | 5.2 | 13.9 | 0.00 | 0.31 | 0.08 | 62 | 1018.5 |
| 20260905171106 | 63 | 248 | 5.2 | 15.6 | 0.00 | 0.31 | 0.08 | 61 | 1018.4 |
| 20260905165602 | 64 | 302 | 5.2 | 13.0 | 0.00 | 0.31 | 0.08 | 61 | 1018.1 |
| 20260905165104 | 64 | 263 | 5.2 | 13.0 | 0.00 | 0.31 | 0.08 | 62 | 1018.2 |
| 20260905164106 | 64 | 240 | 6.1 | 17.4 | 0.00 | 0.31 | 0.08 | 60 | 1018.0 |
| 20260905163602 | 65 | 162 | 6.1 | 15.6 | 0.00 | 0.31 | 0.08 | 60 | 1018.0 |
| 20260905162602 | 65 | 273 | 7.0 | 14.8 | 0.00 | 0.31 | 0.08 | 60 | 1017.9 |
| 20260905161602 | 65 | 259 | 5.2 | 14.8 | 0.00 | 0.31 | 0.08 | 60 | 1017.8 |
| 20260905155602 | 65 | 246 | 6.1 | 16.5 | 0.00 | 0.31 | 0.08 | 60 | 1017.6 |
| 20260905154601 | 65 | 348 | 7.0 | 16.5 | 0.00 | 0.31 | 0.08 | 60 | 1017.6 |
| 20260905154102 | 65 | 252 | 6.1 | 17.4 | 0.00 | 0.31 | 0.08 | 61 | 1017.4 |
| 20260905153602 | 65 | 207 | 7.8 | 17.4 | 0.00 | 0.31 | 0.08 | 60 | 1017.4 |
| 20260905153103 | 65 | 268 | 8.7 | 17.4 | 0.00 | 0.31 | 0.08 | 61 | 1017.4 |
| 20260905152602 | 65 | 252 | 7.8 | 17.4 | 0.00 | 0.31 | 0.08 | 61 | 1017.4 |
| 20260905152103 | 65 | 214 | 7.0 | 16.5 | 0.00 | 0.31 | 0.08 | 61 | 1017.4 |
| 20260905151603 | 65 | 295 | 6.1 | 16.5 | 0.00 | 0.31 | 0.08 | 61 | 1017.3 |
| 20260905151104 | 65 | 233 | 4.3 | 13.0 | 0.00 | 0.31 | 0.08 | 62 | 1017.4 |
| 20260905145602 | 65 | 257 | 5.2 | 12.2 | 0.00 | 0.31 | 0.08 | 61 | 1017.4 |
| 20260905145103 | 65 | 248 | 4.3 | 13.9 | 0.00 | 0.31 | 0.08 | 61 | 1017.4 |
| 20260905144602 | 65 | 249 | 4.3 | 13.9 | 0.00 | 0.31 | 0.08 | 61 | 1017.3 |
| 20260905144103 | 65 | 273 | 5.2 | 14.8 | 0.00 | 0.31 | 0.08 | 61 | 1017.3 |
| 20260905143602 | 65 | 294 | 6.1 | 14.8 | 0.00 | 0.31 | 0.08 | 60 | 1017.4 |
| 20260905143103 | 65 | 247 | 7.0 | 17.4 | 0.00 | 0.31 | 0.08 | 58 | 1017.2 |
| 20260905141602 | 66 | 261 | 7.8 | 15.6 | 0.00 | 0.31 | 0.08 | 59 | 1017.3 |
| 20260905141103 | 66 | 223 | 7.8 | 15.6 | 0.00 | 0.31 | 0.08 | 57 | 1017.4 |
| 20260905140103 | 66 | 240 | 10.4 | 21.7 | 0.00 | 0.31 | 0.08 | 56 | 1017.4 |
| 20260905135603 | 65 | 236 | 9.6 | 21.7 | 0.00 | 0.31 | 0.08 | 57 | 1017.3 |
| 20260905135103 | 66 | 298 | 7.0 | 21.7 | 0.00 | 0.31 | 0.08 | 58 | 1017.4 |
| 20260905134602 | 66 | 311 | 6.1 | 14.8 | 0.00 | 0.31 | 0.08 | 57 | 1017.2 |
| 20260905134103 | 67 | 244 | 7.0 | 16.5 | 0.00 | 0.31 | 0.08 | 57 | 1017.3 |
| 20260905133601 | 67 | 246 | 7.8 | 16.5 | 0.00 | 0.31 | 0.08 | 56 | 1017.1 |
| 20260905133103 | 66 | 238 | 7.8 | 17.4 | 0.00 | 0.31 | 0.08 | 58 | 1017.2 |
| 20260905125602 | 67 | 298 | 8.7 | 20.0 | 0.00 | 0.31 | 0.08 | 59 | 1017.2 |
| 20260905125103 | 66 | 243 | 8.7 | 21.7 | 0.00 | 0.31 | 0.08 | 59 | 1017.2 |
| 20260905124601 | 65 | 249 | 7.8 | 21.7 | 0.00 | 0.31 | 0.08 | 60 | 1017.2 |
| 20260905124104 | 66 | 254 | 8.7 | 17.4 | 0.00 | 0.31 | 0.08 | 61 | 1017.1 |
| 20260905123601 | 67 | 222 | 7.8 | 19.1 | 0.00 | 0.31 | 0.08 | 59 | 1017.0 |
| 20260905123103 | 67 | 223 | 8.7 | 19.1 | 0.00 | 0.31 | 0.08 | 59 | 1017.1 |
| 20260905122602 | 66 | 244 | 8.7 | 17.4 | 0.00 | 0.31 | 0.08 | 60 | 1017.1 |
| 20260905122103 | 65 | 265 | 8.7 | 17.4 | 0.00 | 0.31 | 0.08 | 62 | 1017.1 |
| 20260905121603 | 64 | 254 | 7.8 | 17.4 | 0.00 | 0.31 | 0.08 | 61 | 1017.1 |
| 20260905120104 | 66 | 248 | 6.1 | 13.0 | 0.00 | 0.31 | 0.08 | 62 | 1017.1 |
| 20260905115602 | 65 | 228 | 6.1 | 17.4 | 0.00 | 0.31 | 0.08 | 65 | 1017.1 |
| 20260905115104 | 64 | 265 | 7.8 | 17.4 | 0.00 | 0.31 | 0.08 | 66 | 1017.2 |
| 20260905114602 | 64 | 264 | 7.8 | 20.9 | 0.00 | 0.31 | 0.08 | 63 | 1017.2 |
| 20260905114103 | 64 | 251 | 8.7 | 20.9 | 0.00 | 0.31 | 0.08 | 63 | 1017.2 |
| 20260905113103 | 65 | 277 | 7.8 | 20.0 | 0.00 | 0.31 | 0.08 | 62 | 1017.2 |
| 20260905112104 | 66 | 258 | 7.8 | 21.7 | 0.00 | 0.31 | 0.08 | 63 | 1017.2 |
| 20260905111602 | 65 | 252 | 8.7 | 21.7 | 0.00 | 0.31 | 0.08 | 65 | 1017.3 |
| 20260905111103 | 65 | 237 | 7.0 | 17.4 | 0.00 | 0.31 | 0.08 | 64 | 1017.3 |
| 20260905110602 | 65 | 234 | 5.2 | 15.6 | 0.00 | 0.31 | 0.08 | 66 | 1017.3 |
| 20260905105602 | 65 | 254 | 8.7 | 19.1 | 0.00 | 0.31 | 0.08 | 64 | 1017.3 |
| 20260905105103 | 66 | 233 | 8.7 | 19.1 | 0.00 | 0.31 | 0.08 | 63 | 1017.3 |
| 20260905104602 | 66 | 238 | 9.6 | 19.1 | 0.00 | 0.31 | 0.08 | 64 | 1017.1 |
| 20260905104104 | 65 | 237 | 9.6 | 19.1 | 0.00 | 0.31 | 0.08 | 65 | 1017.1 |
| 20260905103604 | 65 | 289 | 7.8 | 18.2 | 0.00 | 0.31 | 0.08 | 66 | 1017.2 |
| 20260905102601 | 65 | 265 | 8.7 | 18.2 | 0.00 | 0.31 | 0.08 | 64 | 1017.3 |
| 20260905102103 | 65 | 251 | 7.8 | 15.6 | 0.00 | 0.31 | 0.08 | 66 | 1017.2 |
| 20260905101103 | 64 | 275 | 7.8 | 15.6 | 0.00 | 0.31 | 0.08 | 70 | 1017.2 |
| 20260905100602 | 63 | 247 | 8.7 | 17.4 | 0.00 | 0.31 | 0.08 | 68 | 1017.3 |
| 20260905095602 | 65 | 153 | 8.7 | 17.4 | 0.00 | 0.31 | 0.08 | 69 | 1017.1 |
| 20260905095102 | 64 | 225 | 8.7 | 17.4 | 0.00 | 0.31 | 0.08 | 69 | 1017.2 |
| 20260905094103 | 62 | 167 | 5.2 | 12.2 | 0.00 | 0.31 | 0.08 | 73 | 1017.1 |
| 20260905093601 | 63 | 265 | 7.0 | 15.6 | 0.00 | 0.31 | 0.08 | 72 | 1017.2 |
| 20260905093103 | 64 | 263 | 7.8 | 15.6 | 0.00 | 0.31 | 0.08 | 71 | 1017.1 |
| 20260905092601 | 64 | 234 | 9.6 | 16.5 | 0.00 | 0.31 | 0.08 | 71 | 1017.0 |
| 20260905091602 | 63 | 209 | 7.8 | 14.8 | 0.00 | 0.31 | 0.08 | 73 | 1017.0 |
| 20260905091104 | 63 | 232 | 7.0 | 14.8 | 0.00 | 0.31 | 0.08 | 74 | 1016.9 |
| 20260905090602 | 64 | 179 | 6.1 | 12.2 | 0.00 | 0.31 | 0.08 | 76 | 1016.9 |
| 20260905085103 | 61 | 248 | 8.7 | 15.6 | 0.00 | 0.31 | 0.08 | 75 | 1016.7 |
| 20260905084602 | 62 | 240 | 7.8 | 15.6 | 0.00 | 0.31 | 0.08 | 74 | 1016.6 |
| 20260905084104 | 63 | 221 | 7.8 | 15.6 | 0.00 | 0.31 | 0.08 | 76 | 1016.5 |
| 20260905083103 | 62 | 265 | 6.1 | 13.9 | 0.00 | 0.31 | 0.08 | 77 | 1016.6 |
| 20260905082103 | 62 | 269 | 7.8 | 15.6 | 0.00 | 0.31 | 0.08 | 79 | 1016.5 |
| 20260905081602 | 61 | 271 | 7.8 | 15.6 | 0.00 | 0.31 | 0.08 | 80 | 1016.6 |
| 20260905080601 | 60 | 256 | 5.2 | 14.8 | 0.00 | 0.31 | 0.08 | 82 | 1016.6 |
| 20260905075602 | 60 | 244 | 5.2 | 13.0 | 0.00 | 0.31 | 0.08 | 82 | 1016.5 |
| 20260905074103 | 59 | 174 | 4.3 | 13.0 | 0.00 | 0.31 | 0.08 | 83 | 1016.5 |
| 20260905073602 | 59 | 267 | 5.2 | 17.4 | 0.00 | 0.31 | 0.08 | 84 | 1016.4 |
| 20260905072105 | 58 | 245 | 6.1 | 13.0 | 0.00 | 0.31 | 0.08 | 85 | 1016.4 |
| 20260905071601 | 58 | 240 | 5.2 | 13.9 | 0.00 | 0.31 | 0.08 | 86 | 1016.3 |
| 20260905070601 | 57 | 249 | 6.1 | 12.2 | 0.00 | 0.31 | 0.08 | 86 | 1016.3 |
| 20260905065601 | 57 | 260 | 6.1 | 12.2 | 0.00 | 0.31 | 0.08 | 87 | 1016.3 |
| 20260905065103 | 57 | 247 | 6.1 | 13.9 | 0.00 | 0.31 | 0.08 | 87 | 1016.1 |
| 20260905064602 | 57 | 218 | 5.2 | 13.9 | 0.00 | 0.31 | 0.08 | 87 | 1016.0 |
| 20260905064103 | 57 | 265 | 5.2 | 12.2 | 0.00 | 0.31 | 0.08 | 88 | 1016.0 |
| 20260905063602 | 56 | 263 | 5.2 | 12.2 | 0.00 | 0.31 | 0.08 | 88 | 1015.9 |
| 20260905063103 | 56 | 225 | 4.3 | 10.4 | 0.00 | 0.31 | 0.08 | 88 | 1015.9 |
| 20260905062103 | 56 | 270 | 4.3 | 11.3 | 0.00 | 0.31 | 0.08 | 88 | 1015.9 |
| 20260905061103 | 56 | 217 | 4.3 | 10.4 | 0.00 | 0.31 | 0.08 | 89 | 1015.9 |
| 20260905060602 | 56 | 260 | 6.1 | 12.2 | 0.00 | 0.31 | 0.08 | 88 | 1015.9 |
| 20260905060104 | 56 | 225 | 5.2 | 12.2 | 0.00 | 0.31 | 0.08 | 88 | 1015.8 |
| 20260905055602 | 56 | 234 | 4.3 | 11.3 | 0.00 | 0.32 | 0.08 | 89 | 1015.8 |
| 20260905054602 | 56 | 254 | 4.3 | 10.4 | 0.00 | 0.33 | 0.08 | 89 | 1015.8 |
| 20260905053603 | 56 | 256 | 5.2 | 14.8 | 0.00 | 0.33 | 0.08 | 89 | 1015.6 |
| 20260905053103 | 56 | 279 | 6.1 | 12.2 | 0.00 | 0.34 | 0.08 | 89 | 1015.5 |
| 20260905052602 | 56 | 246 | 5.2 | 12.2 | 0.00 | 0.34 | 0.08 | 89 | 1015.4 |
| 20260905052103 | 56 | 228 | 4.3 | 13.0 | 0.00 | 0.34 | 0.08 | 89 | 1015.4 |